Flag for U.S.A. Weather past 2 weeks in Binghamton, New York, U.S.A.

Now
71 °F

Sunny.


Feels Like: 77 °F
Forecast: 51 / 80 °F
Wind: 5 mph from Southwest

Location: Binghamton Regional Airport

Current Time: Jul 25, 2014 at 7:17:01 PM

Latest Report: Jul 25, 2014 at 5:53 PM


Visibility: 9 mi

Pressure: 30.00 "Hg

Humidity: 55%

Dew point: 54 °F

Location of BinghamtonLocation

Historic Weather in Binghamton — Graph

°F

Binghamton temperature yesterday

Maximum temperature yesterday: 68 °F (at 11:53 AM)
Minimum temperature yesterday: 56 °F (at 11:53 PM)
Average temperature yesterday: 62 °F

Past Weeks' High & Low Weather Summary

 TemperatureHumidityPressure
High84 °F (Jul 23, 1:53 PM)100% (Jul 13, 8:53 PM)30.27 "Hg (Jul 13, 8:53 PM)
Low50 °F (Jul 25, 6:53 AM)41% (Jul 18, 2:53 PM)29.74 "Hg (Jul 15, 5:53 PM)
Average68 °F74%30.04 "Hg
* Reported Jul 10 5:53 PM — Jul 25 5:53 PM, Binghamton, Weather by CustomWeather, © 2014

Note: Actual official high and low records may vary slightly from our data, if they occured in-between our weather recording intervals... More about our weather records

Advertising

Binghamton weather history for previous 24 hours

 ConditionsComfort  
Time TempWeatherWind HumidityBarometerVisibility
5:53 PM
Jul 25
71 °FSunny.5 mph55%30.00 "Hg9 mi
4:53 PM72 °FPassing clouds.5 mph53%30.01 "Hg10 mi
3:53 PM73 °FSunny.No wind51%30.01 "Hg10 mi
2:53 PM72 °FPassing clouds.7 mph53%30.03 "Hg10 mi
1:53 PM71 °FScattered clouds.7 mph55%30.05 "Hg10 mi
12:53 PM70 °FPassing clouds.3 mph55%30.06 "Hg10 mi
11:53 AM70 °FSunny.No wind55%30.06 "Hg10 mi
10:53 AM65 °FSunny.No wind73%30.08 "Hg10 mi
9:53 AM61 °FSunny.3 mph78%30.09 "Hg10 mi
8:53 AM58 °FSunny.3 mph78%30.09 "Hg10 mi
7:53 AM54 °FSunny.3 mph86%30.08 "Hg10 mi
6:53 AM50 °FSunny.5 mph96%30.06 "Hg10 mi
5:53 AM51 °FClear.No wind89%30.03 "Hg10 mi
4:53 AM51 °FClear.No wind89%30.02 "Hg10 mi
3:53 AM51 °FClear.No wind86%30.02 "Hg10 mi
2:53 AM56 °FClear.7 mph72%30.03 "Hg10 mi
1:53 AM56 °FClear.7 mph72%30.03 "Hg10 mi
12:53 AM55 °FClear.6 mph77%30.02 "Hg10 mi
11:53 PM
Jul 24
56 °FClear.6 mph75%30.01 "Hg10 mi
10:53 PM57 °FClear.6 mph72%30.00 "Hg10 mi
9:53 PM58 °FClear.6 mph70%29.99 "Hg10 mi
8:53 PM59 °FSunny.5 mph69%29.98 "Hg10 mi
7:53 PM62 °FSunny.7 mph62%29.98 "Hg10 mi
Weather by CustomWeather, © 2014

See weather overviewHow to use our weather pages